FENGYUN 1C DEB

Satellite information

Favourite Embed

Satellite Type and Status

DEBRISIN ORBIT

Key statistics

Satellite FENGYUN 1C DEB at a glance.

Uptime

9553

Days in orbit

Revolutions

≈ 14.2

Per day

Orbit

SSO

Sun Synchronous Orbit

Inclination

99.2

Latest

Satellite identification and parameters

Extended collection of information and parameters for FENGYUN 1C DEB.

Object identification

Identified? True

Debris? True

Object name: FENGYUN 1C DEB

International designator: 1999-025BKK

Object number (NORAD): 31205

Object ID (CCSDS): 31205

Country: PEOPLES REPUBLIC OF CHINA (PRC)

Current information (Y/N): Y

RCS size: SMALL

Orbital parameters

Period: 101.136 minutes

Inclination: 99.2334 deg

SMA: 7190.603 km

Apoapsis: 928.527 km

Periapsis: 696.409 km

RAAN: 269.5254 deg

Eccentricy: 0.0161404

Argument of periapsis: 301.2261 deg

Mean anomaly: 57.3185 deg

Mean motion: 14.23819081 rev/day

Mean motion (dot): 0.00000104 rev/day2

B* drag term: 0.000059482 1/REarth

Two-line elements (TLE)

Creation date: July 3, 2025, 5:26 p.m.

Reference frame: TEME

Reference center: EARTH

Epoch: July 3, 2025, 10:56 a.m. UTC

TLE line 0: 0 FENGYUN 1C DEB

TLE line 1: 1 31205U 99025BKK 25184.45621101 .00000104 00000-0 59482-4 0 9993

TLE line 2: 2 31205 99.2334 269.5254 0161404 301.2261 57.3185 14.23819081949016

Live tracking on map

Real-time ground track for satellite FENGYUN 1C DEB.

In-orbit conjunctions

A list of the most updated potential collisions computed for object FENGYUN 1C DEB.

Target Orbit TCA Probability of collision Miss distance Type
COSMOS 2251 DEB LEO 2025-06-15 14:01:21 0.0002460769 12.0 (m) DEBRIS
CZ-6A DEB LEO 2024-11-19 10:59:43 0.002798995 81.0 (m) DEBRIS

Associated space launch

Chinese polar orbiting meteorological satellite

FENGYUN 1C DEB was lifted into orbit during the mission ‘Long March 4B | Feng Yun 1C’, on board a Long March 4B space rocket.

The launch took place on May 10, 1999, 1:33 a.m. from Launch Complex 7.

For more information about the launch, click the button.

Launch to space Long March 4B | Feng Yun 1C
Long March 4B | Feng Yun 1C

Agency: N/A

Status: Launch Successful

Launch date: May 10, 1999, 1:33 a.m. UTC

Rocket: Long March 4B

Launch pad: Launch Complex 7

Location: Taiyuan Satellite Launch Center, People's Republic of China

...

Latest news about this satellite

There are no fresh news available about this satellite. Check back as we update our databases every day.


Newsletter sign-up

Weekly statistics, charts and insights to help you stay on top of the space industry.